Other Public Products
Issued by NWS Charleston, SC

Home | Current Version | Previous Version | Text Only | Print | Product List | Glossary On
Versions: 1 2 3 4 5 6 7 8 9 10 11 12 13 14 15 16 17 18 19 20 21 22 23 24 25 26 27 28 29 30 31 32 33 34 35 36 37 38 39 40 41 42 43 44 45 46 47 48 49 50
950
FPUS82 KCHS 230227
OPUCHS

TEST...KCHS/KSAV Gateway Observations...TEST
National Weather Service Charleston SC
1000 PM EDT SUN APR 22 2018

NOTE: "fair" indicates few or no clouds below 12,000 feet with no
significant weather and/or obstructions to visibility.

SCZ050-WAZ558-NCZ071-TXZ119-213-PAZ071-DCZ001-FLZ074-172-MI076-
NYZ176-178-MAZ016-IL014-TNZ027-NJZ106-GAZ044-MD014-230300-

...Gateway Observations for Charleston International...

CITY           SKY/WX    TMP DP  RH WIND       PRES   REMARKS
Chas Airport   CLOUDY    67  54  63 E17       30.24F
Seattle        SUNNY     56  38  50 N10       30.31F
Charlotte      CLOUDY    65  48  54 E8        30.25R
Dallas DFW     MOCLDY    62  45  53 NW8       30.01S
Dallas Love    MOCLDY    65  46  50 NW8       30.03R
Philladelphia  FAIR      52  33  48 S7        30.40R
Wash National  FAIR      56  39  53 SE3       30.39R
Baltimore      FAIR      54  37  52 SE6       30.39R
Miami          CLOUDY    76  71  85 E15       30.07R
Detroit        FAIR      53  22  29 NE5       30.33R
Newark         FAIR      54  31  41 SE5       30.37R
Laguardia      FAIR      53  26  35 S12       30.37R
J F K          FAIR      47  37  68 S12       30.40R
Boston Logan   FAIR      50  27  40 CALM      30.37R
Ft. Lauderdale MOCLDY    78  73  84 SE14      30.05R
Chicago O`Hare MOCLDY    46  27  47 NE12      30.27R
Chicago Midway MOCLDY    48  29  47 NE10      30.27R
Houston Bush   FAIR      66  52  60 W3        30.01R
Houston Hobby  FAIR      68  52  56 NW6       30.00R
Nashville      HVY RAIN  58  56  93 E15       29.95F FOG
Atlanta        LGT RAIN  59  58  96 E20G35    30.04R

$$

GAZ044-118-TXZ119-213-NCZ071-DCZ001-MDZ014-506-PAZ021-071-NJZ106-
NYZ176-178-MAZ106-OHZ011-021-055-MIZ076-KYZ091-ILZ014-INZ047-
MNZ060-ONZ431-230300-

...Gateway Observations for Savannah International...

CITY           SKY/WX    TMP DP  RH WIND       PRES   REMARKS
Savannah Arpt  FAIR      67  58  72 E13       30.18S
Atlanta        LGT RAIN  59  58  96 E20G35    30.04R
Charlotte      CLOUDY    65  48  54 E8        30.25R
Dallas DFW     MOCLDY    62  45  53 NW8       30.01S
Houston Bush   FAIR      66  52  60 W3        30.01R
Wash National  FAIR      56  39  53 SE3       30.39R
Wash Dulles    MOCLDY    54  37  52 SE6       30.37R
Baltimore      FAIR      54  37  52 SE6       30.39R
Philadelphia   FAIR      52  33  48 S7        30.40R
Newark         FAIR      54  31  41 SE5       30.37R
Laguardia      FAIR      53  26  35 S12       30.37R
J F K          FAIR      47  37  68 S12       30.40R
Boston         FAIR      50  27  40 CALM      30.37R
Pittsburg      FAIR      58  28  32 E7        30.26R
Akron          FAIR      51  27  39 NE9       30.28R
Cleveland      FAIR      49  27  42 NE9       30.32R
Cincinnati     MOCLDY    61  26  26 NE17      30.14F
Columbus       FAIR      52  31  43 NE7       30.20S
Detroit        FAIR      53  22  29 NE5       30.33R
Chicago O`Hare MOCLDY    46  27  47 NE12      30.27R
Minneapolis    FAIR      59  38  45 S6        30.25R
Indianapolis   CLOUDY    59  29  31 NE13      30.16S
Toronto Canada CLEAR     52  14  22 E3        30.39R

$$




USA.gov is the U.S. government's official web portal to all federal, state and local government web resources and services.